Weather History for KBRL - October, 2014

Change the Weather History Date:

Monday, October 20, 2014

  Actual Average Record
Temperature  
Mean Temperature 57 °F 54 °F  
Max Temperature 69 °F 65 °F 85 °F (1963)
Min Temperature 44 °F 43 °F 21 °F (1960)
Degree Days  
Heating Degree Days 8 12  
Month to date heating degree days 203 174  
Since 1 July heating degree days 311 245  
Cooling Degree Days 0 0  
Month to date cooling degree days 0 19  
Year to date cooling degree days 937 1201  
Growing Degree Days 10 (Base 50)    
Moisture  
Dew Point 45 °F    
Average Humidity 63    
Maximum Humidity 86    
Minimum Humidity 39    
Precipitation  
Precipitation 0.00 in 0.09 in 1.44 in (2005)
Month to date precipitation 4.13 2.07  
Year to date precipitation 38.34 32.84  
Sea Level Pressure  
Sea Level Pressure 29.95 in    
Wind  
Wind Speed 8 mph (NW)    
Max Wind Speed 21 mph    
Max Gust Speed 27 mph    
Visibility 10 miles    
Events      
T = Trace of Precipitation, MM = Missing Value Source: NWS Daily Summary

Daily Weather History Graph

Daily Weather History Graph

Search for Another Location

Airport or City:

Trip Planner

Search our weather history database for the weather conditions in past years. The results will help you decide how hot, cold, wet, or windy it might be!

Date:

Astronomy

Oct. 20, 2014 Rise Set
Actual Time 7:21 AM CDT 6:16 PM CDT
Civil Twilight 6:53 AM CDT 6:44 PM CDT
Nautical Twilight 6:21 AM CDT 7:16 PM CDT
Astronomical Twilight 5:49 AM CDT 7:47 PM CDT
Moon 4:08 AM CDT (10/20) 4:40 PM CDT (10/20)
Length of Visible Light 11h 51m
Length of Day
10h 55m
Waning Crescent, 10% of the Moon is Illuminated
Oct 20
Waning Crescent
Oct 23
New
Oct 30
First Quarter
Nov 6
Full
Nov 14
Last Quarter

Hourly Weather History & Observations

Time (CDT) Temp. Dew Point Humidity Pressure Visibility Wind Dir Wind Speed Gust Speed Precip Events Conditions
12:53 AM 52.0 °F 46.0 °F 80% 29.91 in 10.0 mi SW 6.9 mph - N/A   Clear
1:53 AM 53.1 °F 46.0 °F 77% 29.90 in 10.0 mi SW 9.2 mph - N/A   Clear
2:53 AM 52.0 °F 46.9 °F 83% 29.89 in 10.0 mi WSW 5.8 mph - N/A   Clear
3:53 AM 52.0 °F 46.9 °F 83% 29.89 in 10.0 mi West 6.9 mph - N/A   Clear
4:53 AM 51.1 °F 46.9 °F 86% 29.89 in 10.0 mi West 5.8 mph - N/A   Clear
5:53 AM 51.1 °F 46.9 °F 86% 29.90 in 10.0 mi WNW 6.9 mph - N/A   Clear
6:53 AM 50.0 °F 46.0 °F 86% 29.92 in 10.0 mi NW 6.9 mph - N/A   Clear
7:53 AM 50.0 °F 45.0 °F 83% 29.94 in 10.0 mi NW 8.1 mph - N/A   Clear
8:53 AM 53.1 °F 45.0 °F 74% 29.96 in 10.0 mi NNW 10.4 mph - N/A   Clear
9:53 AM 57.9 °F 46.0 °F 65% 29.98 in 10.0 mi NNW 10.4 mph - N/A   Clear
10:53 AM 62.1 °F 46.0 °F 56% 29.98 in 10.0 mi NW 13.8 mph - N/A   Clear
11:53 AM 64.4 °F 44.6 °F 49% 29.98 in 10.0 mi North 10.4 mph 23.0 mph N/A   Clear
12:53 PM 66.0 °F 45.0 °F 47% 29.97 in 10.0 mi NNW 12.7 mph - N/A   Clear
1:53 PM 66.9 °F 44.1 °F 44% 29.95 in 10.0 mi NW 11.5 mph 24.2 mph N/A   Clear
2:53 PM 68.0 °F 44.1 °F 42% 29.95 in 10.0 mi NW 16.1 mph 21.9 mph N/A   Clear
3:53 PM 69.1 °F 44.1 °F 40% 29.95 in 10.0 mi NNW 9.2 mph - N/A   Clear
4:53 PM 68.0 °F 43.0 °F 40% 29.96 in 10.0 mi NW 12.7 mph - N/A   Clear
5:53 PM 64.9 °F 43.0 °F 45% 29.97 in 10.0 mi NW 6.9 mph - N/A   Clear
6:53 PM 59.0 °F 43.0 °F 55% 29.98 in 10.0 mi West 3.5 mph - N/A   Clear
7:53 PM 52.0 °F 46.0 °F 80% 29.99 in 10.0 mi Calm Calm - N/A   Clear
8:53 PM 50.0 °F 44.1 °F 80% 30.00 in 10.0 mi NW 3.5 mph - N/A   Clear
9:53 PM 51.8 °F 44.6 °F 76% 30.01 in 10.0 mi NW 4.6 mph - N/A   Clear
10:53 PM 50.0 °F 43.0 °F 77% 30.02 in 10.0 mi NW 6.9 mph - N/A   Clear
11:53 PM 48.9 °F 43.0 °F 80% 30.02 in 10.0 mi NW 4.6 mph - N/A   Clear